x

Central Caribbean - 210 Nm Sse Of Kingston, Jamaica (42058) Wave Buoy

10:50am - Sun 22nd Oct 2017 All times are EST. -5 hours from GMT.

  • Sig Wave height 10.8ft
  • Swell Direction
  • Peak Period 9s
  • Average Period 7s
  • Wind
    25mph, 31mph gusts
  • Sea Temp 85°f
  • Sea Pressure 1012mb
  • Central Caribbean - 210 Nm Sse Of Kingston, Jamaica
  • Central Caribbean - 210 Nm Sse Of Kingston, Jamaica

More Historic Weather Station data

Upgrade to MSW Pro to gain access to the past 30 days of data for over 8000 Wavebouys and Weather Stations around the globe.

Join

Comparision Forecast

View Surf forecast
   
Sun 10/22 10:50am 11ft 9s 7s 25 31 mph 1012mb 85f
10:40am 11ft  -  7s 29 36 mph 1012.3mb 85f
10:30am  -   -   -  27 34 mph 1012.3mb 85f
10:20am  -   -   -  27 34 mph 1012.5mb 85f
10:10am  -   -   -  27 34 mph 1012.6mb 85f
10:00am  -   -   -  25 31 mph 1012.7mb 85f
9:50am 11ft 8s 7s 27 36 mph 1012.8mb 85f
9:40am  -   -   -  27 36 mph 1012.8mb 85f
9:30am  -   -   -  25 31 mph 1012.8mb 85f
9:20am  -   -   -  27 34 mph 1012.7mb 85f
9:10am  -   -   -  27 34 mph 1012.7mb 85f
9:00am  -   -   -  27 36 mph 1012.6mb -
8:50am 11.5ft 9s 7s 27 34 mph 1012.5mb 85f
8:40am  -   -   -  29 36 mph 1012.2mb 85f
8:30am  -   -   -  29 36 mph 1012.1mb 85f
8:20am  -   -   -  27 34 mph 1012mb 85f
8:10am  -   -   -  29 38 mph 1012mb 85f
8:00am  -   -   -  27 34 mph 1012mb -
7:50am 11.5ft 10s 7s 29 36 mph 1011.7mb 85f
7:40am  -   -   -  29 36 mph 1011.7mb 85f
7:30am  -   -   -  27 36 mph 1011.6mb 85f
7:20am  -   -   -  29 36 mph 1011.5mb -
7:10am  -   -   -  27 36 mph 1011.5mb 85f
7:00am  -   -   -  29 36 mph 1011.4mb 85f
6:50am 10ft  -  6s 27 34 mph 1011.3mb 85f
6:40am  -   -   -  29 36 mph 1011.1mb 85f
6:30am  -   -   -  27 34 mph 1011mb 85f
6:20am  -   -   -  29 36 mph 1010.8mb 85f
6:10am  -   -   -  29 38 mph 1010.7mb 85f
6:00am  -   -   -  29 36 mph 1010.6mb -
5:50am 10.5ft 8s 6s 29 34 mph 1010.6mb 85f
5:40am  -   -   -  27 34 mph 1010.5mb 85f
5:30am  -   -   -  29 36 mph 1010.4mb 85f
5:20am  -   -   -  29 36 mph 1010.4mb 85f
5:10am  -   -   -  29 36 mph 1010.3mb 85f
5:00am  -   -   -  29 36 mph 1010.3mb 85f
4:50am 10.5ft 9s 6s 29 36 mph 1010.4mb -
4:40am 10.5ft  -  6s 29 36 mph 1010.4mb 85f
4:30am  -   -   -  27 36 mph 1010.4mb 85f
4:20am  -   -   -  29 36 mph 1010.2mb 85f
4:10am  -   -   -  27 34 mph 1010.2mb 85f
4:00am  -   -   -  27 34 mph 1010mb 85f
3:50am 11ft 8s 6s 29 36 mph 1010mb 85f
3:40am  -   -   -  29 38 mph 1010mb 85f
3:30am  -   -   -  29 36 mph 1010mb 85f
3:20am  -   -   -  27 36 mph 1009.9mb 85f
3:10am  -   -   -  27 36 mph 1010mb 85f
3:00am  -   -   -  27 34 mph 1009.9mb 85f
2:50am 12ft 9s 7s 29 34 mph 1010mb 85f
2:40am  -   -   -  29 36 mph 1010.2mb 85f
2:30am  -   -   -  27 36 mph 1010.4mb 85f
2:20am  -   -   -  29 34 mph 1010.4mb 85f
2:10am  -   -   -  27 31 mph 1010.4mb 85f
2:00am  -   -   -  27 34 mph 1010.6mb 85f
1:50am 11ft 9s 7s 29 34 mph 1010.7mb 85f
1:40am  -   -   -  27 34 mph 1010.9mb 85f
1:30am  -   -   -  29 36 mph 1011mb 85f
1:20am  -   -   -  29 34 mph 1011mb 85f
1:10am  -   -   -  27 34 mph 1011.1mb 85f
1:00am  -   -   -  27 34 mph 1011.3mb 85f
12:50am 11ft 9s 6s 27 36 mph 1011.5mb 85f
12:40am  -   -   -  27 36 mph 1011.7mb 85f
12:30am  -   -   -  27 34 mph 1012mb 85f
12:20am  -   -   -  27 34 mph 1012.1mb 85f
12:10am  -   -   -  27 34 mph 1012.1mb 85f
12:00am  -   -   -  27 34 mph 1012.1mb 85f
Sat 10/21 11:50pm 11ft 10s 7s 29 34 mph 1012.2mb 85f
11:40pm 11ft  -  7s 29 36 mph 1012.2mb 85f
11:30pm  -   -   -  29 38 mph - -
11:20pm  -   -   -  27 31 mph 1012.2mb 85f
11:10pm  -   -   -  25 31 mph 1012.2mb 85f
11:00pm  -   -   -  27 34 mph 1012.3mb 85f
10:50pm 10ft 9s 6s 27 34 mph 1012.3mb 85f
10:40pm  -   -   -  29 36 mph 1012.3mb 85f
10:30pm  -   -   -  27 31 mph 1012.4mb 85f
10:20pm  -   -   -  27 31 mph 1012.3mb 85f
10:10pm  -   -   -  27 36 mph 1012.2mb -
10:00pm  -   -   -  27 34 mph 1012.2mb -
9:50pm 11ft 9s 7s 27 34 mph 1012.3mb 85f
9:40pm 11ft  -  7s 29 34 mph 1012.2mb 85f
9:30pm  -   -   -  27 34 mph 1012.1mb 85f
9:20pm  -   -   -  27 34 mph 1012.1mb 85f
9:10pm  -   -   -  27 34 mph 1012.1mb 85f
9:00pm  -   -   -  27 34 mph 1012mb 85f
8:30pm  -   -   -  27 36 mph 1011.9mb 85f
8:20pm  -   -   -  27 36 mph 1011.7mb 85f
8:10pm  -   -   -  27 36 mph 1011.7mb 85f
8:00pm  -   -   -  29 36 mph 1011.6mb 85f
7:50pm 11ft 10s 7s 27 34 mph 1011.5mb 85f
7:40pm  -   -   -  27 34 mph 1011.3mb 85f
7:30pm  -   -   -  27 36 mph 1011.1mb 85f
7:20pm  -   -   -  27 34 mph 1011mb 85f
7:10pm  -   -   -  27 36 mph 1010.8mb 85f
7:00pm  -   -   -  27 34 mph 1010.6mb 85f
6:50pm 10.5ft 9s 7s 29 34 mph 1010.5mb 85f
6:40pm 10.5ft  -  7s 27 34 mph 1010.3mb 85f
6:20pm  -   -   -  25 31 mph 1010.1mb 85f
6:10pm  -   -   -  25 29 mph 1010mb 85f
6:00pm  -   -   -  27 34 mph 1009.9mb 85f
5:50pm 11ft 9s 7s 25 31 mph 1009.7mb 85f
5:40pm 11ft  -  7s 25 31 mph 1009.7mb 85f
5:30pm  -   -   -  27 31 mph 1009.7mb 85f
5:20pm  -   -   -  27 31 mph 1009.6mb 85f
5:10pm  -   -   -  27 34 mph 1009.7mb 85f
5:00pm  -   -   -  27 34 mph 1009.6mb 85f
4:50pm 10.5ft 10s 7s 27 34 mph 1009.5mb 85f
4:40pm 10.5ft  -  7s 25 31 mph 1009.6mb 85f
4:30pm  -   -   -  27 34 mph 1009.6mb 85f
4:20pm  -   -   -  27 34 mph 1009.6mb 85f
4:10pm  -   -   -  25 31 mph 1009.6mb 85f
4:00pm  -   -   -  27 34 mph 1009.5mb 85f
3:50pm 11ft 10s 7s 27 34 mph 1009.5mb 85f
3:40pm 11ft  -  7s 25 31 mph 1009.5mb 85f
3:30pm  -   -   -  27 34 mph 1009.5mb 85f
3:20pm  -   -   -  25 31 mph 1009.5mb 85f
3:10pm  -   -   -  27 36 mph 1009.5mb 85f
3:00pm  -   -   -  27 34 mph 1009.6mb 85f
2:50pm 12ft 10s 7s 27 34 mph 1009.6mb 85f
2:40pm  -   -   -  27 36 mph 1009.7mb 85f
2:30pm  -   -   -  27 34 mph 1009.6mb 85f
2:20pm  -   -   -  27 34 mph 1009.6mb 85f
2:10pm  -   -   -  27 34 mph 1009.8mb 85f
2:00pm  -   -   -  25 31 mph 1009.9mb -
1:50pm 12ft 10s 7s 25 31 mph 1010mb 85f
1:40pm  -   -   -  27 34 mph 1010.1mb 85f
1:30pm  -   -   -  27 36 mph 1010.2mb 85f
1:20pm  -   -   -  27 34 mph 1010.3mb 85f
1:10pm  -   -   -  27 34 mph 1010.4mb 85f
1:00pm  -   -   -  27 31 mph 1010.5mb 85f
12:50pm 13ft 9s 7s 27 34 mph 1010.7mb 85f
12:40pm 13ft  -  7s 27 36 mph 1010.7mb 85f
12:30pm  -   -   -  27 34 mph 1010.8mb 85f
12:20pm  -   -   -  27 34 mph 1010.9mb 85f
12:10pm  -   -   -  27 34 mph 1011mb 85f
12:00pm  -   -   -  27 34 mph 1011mb 85f
11:50am 11.5ft 10s 7s 27 31 mph 1011mb 85f
11:40am  -   -   -  27 34 mph 1011.2mb 85f
11:30am  -   -   -  27 34 mph 1011.3mb 85f
11:20am  -   -   -  27 34 mph 1011.5mb 85f
11:10am  -   -   -  27 34 mph 1011.5mb 85f
11:00am  -   -   -  27 34 mph 1011.6mb 85f
10:50am 13ft 10s 7s 27 31 mph 1011.7mb 85f
10:40am 13ft  -  7s 27 36 mph 1011.9mb 85f
10:30am  -   -   -  27 34 mph 1012mb 85f
10:20am  -   -   -  29 34 mph 1012mb 85f
10:10am  -   -   -  27 36 mph 1012.2mb 85f
10:00am  -   -   -  27 34 mph 1012.1mb 85f
9:50am 12ft 9s 7s 27 31 mph 1012.1mb 85f
9:40am  -   -   -  27 34 mph 1012.2mb 85f
9:30am  -   -   -  29 36 mph 1012.1mb 85f
9:20am  -   -   -  29 38 mph 1012mb 85f
9:10am  -   -   -  29 34 mph 1011.9mb 85f
9:00am  -   -   -  27 34 mph 1011.9mb 85f
8:50am 12.5ft 9s 7s 27 34 mph 1011.7mb 85f
8:40am  -   -   -  29 38 mph 1011.5mb 85f
8:30am  -   -   -  31 38 mph 1011.3mb 85f
8:20am  -   -   -  29 36 mph 1011.2mb 85f
8:10am  -   -   -  27 34 mph 1011.2mb -
8:00am  -   -   -  27 36 mph 1011mb -
7:50am 12ft  -  7s 27 34 mph 1010.9mb 85f
7:40am  -   -   -  29 36 mph 1010.9mb 85f
7:30am  -   -   -  29 36 mph 1010.9mb 85f
7:20am  -   -   -  31 38 mph 1010.8mb 85f
7:10am  -   -   -  31 38 mph 1010.7mb 85f
7:00am  -   -   -  29 38 mph 1010.4mb 85f
6:50am 12ft 9s 7s 29 38 mph 1010.6mb 85f
6:40am  -   -   -  29 36 mph 1010.4mb 85f
6:30am  -   -   -  29 36 mph 1010.2mb 85f
6:20am  -   -   -  27 38 mph 1010mb 85f
6:10am  -   -   -  25 31 mph 1010mb 85f
6:00am  -   -   -  27 36 mph 1009.7mb 85f
5:50am 11ft 9s 6s 29 36 mph 1009.5mb 85f
5:40am 11ft  -  6s 29 38 mph 1009.4mb 85f
5:30am  -   -   -  31 38 mph 1009.1mb 85f
5:20am  -   -   -  29 38 mph 1008.9mb 85f
5:10am  -   -   -  29 38 mph 1008.9mb 85f
5:00am  -   -   -  27 36 mph 1008.8mb 85f
4:50am 11.5ft 8s 6s 29 36 mph 1008.7mb 85f
4:40am  -   -   -  29 38 mph 1008.7mb 85f
4:30am  -   -   -  31 40 mph 1008.5mb 85f
4:20am  -   -   -  31 38 mph 1008.3mb 85f
4:10am  -   -   -  31 40 mph 1008.3mb 85f
4:00am  -   -   -  29 38 mph 1008.2mb 85f
3:50am 13ft 9s 7s 31 40 mph 1008.1mb 85f
3:40am 13ft  -  7s 31 40 mph 1008.1mb 85f
3:30am  -   -   -  31 40 mph 1008mb 85f
3:20am  -   -   -  31 38 mph 1008.1mb 85f
3:10am  -   -   -  29 40 mph 1008.1mb 85f
3:00am  -   -   -  27 34 mph 1008.1mb 85f
2:50am 11.5ft 9s 7s 29 40 mph 1008mb 85f
2:40am 11.5ft  -  7s 31 47 mph 1008.1mb 85f
2:30am  -   -   -  29 38 mph 1008mb 85f
2:20am  -   -   -  29 36 mph 1008.2mb 85f
2:10am  -   -   -  29 38 mph 1008.3mb 85f
2:00am  -   -   -  29 36 mph 1008.4mb 85f
1:50am 11ft 8s 6s 29 36 mph 1008.4mb 85f
1:40am 11ft  -  6s 34 40 mph 1008.6mb 85f
1:30am  -   -   -  29 36 mph 1008.7mb 85f
1:20am  -   -   -  29 36 mph 1008.7mb 85f
1:10am  -   -   -  29 36 mph 1008.7mb 85f
1:00am  -   -   -  29 34 mph 1008.8mb 85f
12:50am 11.5ft 9s 7s 29 36 mph 1008.8mb 85f
12:40am 11.5ft  -  7s 29 36 mph 1009mb 85f
12:30am  -   -   -  27 34 mph 1009.2mb 85f
12:20am  -   -   -  27 34 mph 1009.3mb 85f
12:10am  -   -   -  29 36 mph 1009.3mb 85f
12:00am  -   -   -  31 40 mph 1009.4mb 85f
Fri 10/20 11:50pm 11.5ft 9s 7s 31 43 mph 1009.5mb 85f
11:40pm 11.5ft  -  7s 31 43 mph 1009.7mb 85f
11:30pm  -   -   -  31 43 mph 1009.8mb 85f
11:20pm  -   -   -  29 38 mph 1009.8mb 85f
11:10pm  -   -   -  29 36 mph 1009.8mb 85f
11:00pm  -   -   -  29 34 mph 1009.8mb 85f
10:50pm 11ft 10s 6s 29 38 mph 1009.8mb 85f
10:40pm  -   -   -  29 36 mph 1009.8mb 85f
10:30pm  -   -   -  27 34 mph 1009.8mb 85f
10:20pm  -   -   -  29 34 mph 1009.8mb 85f
10:10pm  -   -   -  27 38 mph 1009.8mb 85f
10:00pm  -   -   -  27 34 mph 1009.9mb 85f
9:50pm 11ft 8s 6s 27 36 mph 1009.8mb 85f
9:40pm 11ft  -  6s 29 38 mph 1009.7mb 85f
9:30pm  -   -   -  29 36 mph 1009.6mb 85f
9:20pm  -   -   -  27 34 mph 1009.5mb 85f
9:10pm  -   -   -  29 40 mph 1009.4mb 85f
9:00pm  -   -   -  27 34 mph 1009.3mb 85f
8:50pm 11ft 10s 6s 27 34 mph 1009.2mb 85f
8:40pm 11ft  -  6s 27 36 mph 1009.2mb 85f
8:30pm  -   -   -  27 34 mph 1009.1mb 85f
8:20pm  -   -   -  27 34 mph 1009mb 85f
8:10pm  -   -   -  27 34 mph 1008.9mb 85f
8:00pm  -   -   -  27 34 mph 1008.7mb -
7:50pm 10.5ft 9s 7s 29 36 mph - -
7:40pm 10.5ft  -  7s 29 36 mph 1008.4mb 85f
7:30pm  -   -   -  29 38 mph 1008.2mb 85f
7:20pm  -   -   -  29 36 mph 1008mb 85f
7:10pm  -   -   -  27 34 mph 1007.9mb 85f
7:00pm  -   -   -  27 31 mph 1007.9mb 85f
6:50pm 10ft 9s 6s 27 34 mph 1007.9mb 85f
6:40pm 10ft  -  6s 27 34 mph 1007.8mb 85f
6:20pm  -   -   -  25 29 mph 1007.8mb 85f
6:10pm  -   -   -  25 31 mph 1007.7mb 85f
6:00pm  -   -   -  25 31 mph 1007.8mb 85f
5:50pm 9ft 9s 6s 22 29 mph 1007.9mb 85f
5:40pm  -   -   -  22 29 mph 1007.8mb 85f
5:30pm  -   -   -  22 29 mph 1007.9mb -
5:20pm  -   -   -  22 27 mph 1007.9mb 85f
5:10pm  -   -   -  20 27 mph 1008mb 85f
5:00pm  -   -   -  22 29 mph 1008mb 85f
4:50pm 9ft 9s 6s 22 27 mph 1008.2mb 85f
4:40pm 9ft  -  6s 20 25 mph 1008.4mb 85f
4:30pm  -   -   -  22 27 mph 1008.3mb 85f
4:20pm  -   -   -  22 27 mph 1008.2mb 85f
4:10pm  -   -   -  22 27 mph 1008.1mb 85f
4:00pm  -   -   -  18 29 mph 1008.2mb 85f
3:50pm 9ft 10s 6s 20 34 mph 1008.2mb 85f
3:40pm  -   -   -  20 27 mph 1008.1mb 85f
3:30pm  -   -   -  22 27 mph 1008.2mb 85f
3:20pm  -   -   -  20 25 mph 1008.2mb 85f
3:10pm  -   -   -  18 25 mph 1008.2mb 85f
3:00pm  -   -   -  25 34 mph 1008.4mb 85f
2:50pm 9ft 9s 6s 22 31 mph 1008.4mb 85f
2:40pm  -   -   -  18 27 mph 1008.5mb 85f
2:30pm  -   -   -  22 29 mph 1008.4mb 85f
2:20pm  -   -   -  22 29 mph 1008.4mb 85f
2:10pm  -   -   -  22 29 mph 1008.4mb 85f
2:00pm  -   -   -  22 27 mph 1008.5mb 85f
1:50pm 9ft 8s 6s 22 29 mph 1008.5mb 85f
1:40pm 9ft  -  6s 22 31 mph 1008.6mb 85f
1:30pm  -   -   -  20 25 mph 1008.8mb 85f
1:20pm  -   -   -  22 34 mph 1008.9mb 85f
1:10pm  -   -   -  25 31 mph 1009.2mb 85f
1:00pm  -   -   -  25 38 mph 1009.4mb 85f
12:50pm 9ft 9s 6s 25 31 mph 1009.1mb 85f
12:40pm 9ft  -  6s 22 29 mph 1009.2mb 85f
12:30pm  -   -   -  25 29 mph 1009.3mb 85f
12:20pm  -   -   -  25 31 mph 1009.4mb 85f
12:10pm  -   -   -  25 31 mph 1009.5mb 85f
12:00pm  -   -   -  25 31 mph 1009.6mb -
11:50am 9ft 9s 6s 20 27 mph 1009.8mb 85f
11:40am  -   -   -  20 25 mph 1009.9mb 85f
11:30am  -   -   -  20 27 mph 1010.2mb 85f
11:20am  -   -   -  22 27 mph 1010.4mb 85f
11:10am  -   -   -  20 25 mph 1010.6mb 85f
11:00am  -   -   -  25 31 mph 1010.8mb 85f
10:50am 7ft 8s 6s 29 40 mph 1010.9mb 85f
9:50am 7.5ft 9s 6s 25 31 mph 1010.9mb 85f
9:20am  -   -   -  20 25 mph 1011mb 85f
9:10am  -   -   -  20 25 mph 1010.9mb 85f
9:00am  -   -   -  25 31 mph 1010.9mb 85f
8:50am 8ft 9s 6s 25 31 mph 1011mb 85f
8:40am  -   -   -  22 29 mph 1010.9mb 85f
8:30am  -   -   -  22 27 mph 1010.9mb 85f
8:20am  -   -   -  22 27 mph 1011mb 85f
8:10am  -   -   -  20 27 mph 1010.8mb 85f
8:00am  -   -   -  20 27 mph 1010.7mb -
7:50am 7.5ft 9s 6s 22 29 mph 1010.5mb 85f
7:40am 7.5ft  -  6s 22 27 mph 1010.5mb 85f
7:30am  -   -   -  20 27 mph 1010.3mb 85f
7:20am  -   -   -  20 25 mph 1010.2mb 85f
7:10am  -   -   -  25 31 mph 1009.9mb 85f
7:00am  -   -   -  22 27 mph 1009.7mb 85f
6:50am 7.5ft 9s 6s 20 29 mph 1009.8mb 85f
6:40am 7.5ft  -  6s 20 25 mph 1009.7mb 85f
6:30am  -   -   -  20 25 mph 1009.6mb 85f
6:20am  -   -   -  22 27 mph 1009.3mb 85f
6:10am  -   -   -  20 27 mph 1009.4mb 85f
6:00am  -   -   -  20 27 mph 1009.3mb 85f
5:50am 7.5ft 9s 6s 20 27 mph 1009.3mb 85f
5:40am  -   -   -  22 27 mph 1009.1mb 85f
5:30am  -   -   -  20 27 mph 1009mb -
5:20am  -   -   -  20 25 mph 1009mb 85f
5:10am  -   -   -  20 27 mph 1009mb 85f
5:00am  -   -   -  20 27 mph 1008.9mb 85f
4:50am 7.5ft 8s 6s 22 27 mph 1008.9mb 85f
4:40am 7.5ft  -  6s 20 25 mph 1008.9mb 85f
4:30am  -   -   -  20 25 mph 1008.7mb -
4:20am  -   -   -  20 27 mph 1008.8mb 85f
4:10am  -   -   -  20 22 mph 1008.8mb 85f
4:00am  -   -   -  20 25 mph 1008.7mb 85f
3:50am 7.5ft 8s 6s 20 27 mph 1008.7mb 85f
3:40am  -   -   -  20 25 mph 1008.6mb 85f
3:30am  -   -   -  18 25 mph 1008.7mb 85f
3:20am  -   -   -  18 22 mph 1008.6mb 85f
3:10am  -   -   -  18 27 mph 1008.9mb 85f
3:00am  -   -   -  20 25 mph 1008.8mb 85f
2:50am 8ft 8s 6s 20 25 mph 1008.8mb 85f
2:40am  -   -   -  20 25 mph 1008.6mb 85f
2:30am  -   -   -  18 22 mph 1008.7mb 85f
2:20am  -   -   -  20 25 mph 1008.8mb 85f
2:10am  -   -   -  20 31 mph 1008.9mb 85f
2:00am  -   -   -  18 22 mph 1008.8mb 85f
1:50am 8ft 9s 6s 18 25 mph 1008.9mb 85f
1:40am  -   -   -  20 25 mph 1009.2mb 85f
1:30am  -   -   -  22 31 mph 1009.2mb 85f
1:20am  -   -   -  20 25 mph 1009.3mb 85f
1:10am  -   -   -  18 25 mph 1009.3mb 85f
1:00am  -   -   -  18 22 mph 1009.5mb 85f
12:50am 8ft 8s 6s 18 25 mph 1009.6mb 85f
12:40am  -   -   -  18 25 mph 1010mb 85f
12:30am  -   -   -  18 25 mph 1010.2mb 85f
12:20am  -   -   -  20 25 mph 1010.3mb 85f
12:10am  -   -   -  20 25 mph 1010.3mb 85f
12:00am  -   -   -  20 25 mph 1010.4mb 85f
Thu 10/19 11:50pm 7.5ft 7s 6s 20 27 mph 1010.4mb 85f
11:40pm  -   -   -  20 25 mph 1010.6mb 85f
11:30pm  -   -   -  20 25 mph 1010.7mb -
11:20pm  -   -   -  20 25 mph 1010.7mb 85f
11:10pm  -   -   -  20 25 mph 1010.7mb 85f
11:00pm  -   -   -  20 25 mph 1010.9mb 85f
10:50pm 8ft 8s 6s 20 25 mph 1011mb 85f
10:40pm 8ft  -  6s 20 27 mph 1011mb 85f
10:30pm  -   -   -  22 27 mph 1011mb 85f
10:20pm  -   -   -  22 27 mph 1010.9mb 85f
10:10pm  -   -   -  20 29 mph 1011mb 85f
10:00pm  -   -   -  20 25 mph 1011.1mb 85f
9:50pm 7.5ft 8s 6s 20 25 mph 1011.1mb 85f
9:40pm  -   -   -  20 25 mph 1011.1mb 85f
9:30pm  -   -   -  20 27 mph 1011.2mb 85f
9:20pm  -   -   -  22 25 mph 1011.3mb 85f
9:10pm  -   -   -  20 25 mph 1011.2mb 85f
9:00pm  -   -   -  22 27 mph 1011.2mb 85f
8:50pm 8.5ft 8s 6s 22 29 mph 1011mb 85f
8:40pm  -   -   -  20 27 mph 1010.9mb 85f
8:30pm  -   -   -  20 27 mph 1010.6mb 85f
8:20pm  -   -   -  22 27 mph 1010.5mb 85f
8:10pm  -   -   -  20 25 mph 1010.5mb 85f
8:00pm  -   -   -  20 27 mph 1010.4mb 85f
7:50pm 7.5ft 8s 6s 20 27 mph 1010.4mb 85f
7:40pm 7.5ft  -  6s 22 27 mph 1010.1mb 85f
7:30pm  -   -   -  22 27 mph 1009.9mb 85f
7:20pm  -   -   -  22 27 mph 1009.7mb 85f
7:10pm  -   -   -  20 25 mph 1009.6mb 85f
7:00pm  -   -   -  20 27 mph 1009.5mb 85f
6:50pm 7.5ft 9s 6s 20 25 mph 1009.3mb 85f
6:40pm 7.5ft  -  6s 20 25 mph 1009.2mb 85f
6:30pm  -   -   -  20 25 mph 1009.1mb 85f
6:20pm  -   -   -  20 25 mph 1009.1mb 85f
6:10pm  -   -   -  20 25 mph 1009.1mb 85f
6:00pm  -   -   -  20 25 mph 1009.1mb 85f
5:50pm 7ft 8s 6s 18 22 mph 1009.1mb 85f
5:40pm 7ft  -  6s 18 22 mph 1009mb 85f
5:30pm  -   -   -  20 25 mph 1009.1mb -
5:20pm  -   -   -  18 22 mph 1009mb 85f
5:10pm  -   -   -  20 22 mph 1009mb 85f
5:00pm  -   -   -  18 22 mph 1009mb 85f
4:50pm 7ft 8s 6s 20 22 mph 1008.8mb 85f
4:40pm  -   -   -  20 25 mph 1008.7mb 85f
4:30pm  -   -   -  20 25 mph 1008.5mb 85f
4:20pm  -   -   -  20 22 mph 1008.3mb 85f
4:10pm  -   -   -  20 25 mph 1008.3mb 85f
4:00pm  -   -   -  18 22 mph 1008.3mb 85f
3:50pm 8ft 8s 6s 20 22 mph 1008.3mb 85f
3:40pm  -   -   -  18 22 mph 1008.2mb 85f
3:30pm  -   -   -  18 22 mph 1008.4mb 85f
3:20pm  -   -   -  18 22 mph 1008.4mb 85f
3:10pm  -   -   -  20 25 mph 1008.4mb -
3:00pm  -   -   -  20 22 mph 1008.4mb 85f
2:50pm 7.5ft 8s 6s 20 25 mph 1008.4mb 85f
2:40pm  -   -   -  20 25 mph 1008.4mb 85f
2:30pm  -   -   -  20 27 mph 1008.5mb 85f
2:20pm  -   -   -  20 27 mph 1008.6mb 85f
2:10pm  -   -   -  20 25 mph 1008.8mb 85f
2:00pm  -   -   -  22 27 mph 1008.9mb 85f
1:50pm 8ft 8s 6s 22 27 mph 1008.8mb 85f
1:40pm 8ft  -  6s 25 29 mph 1008.9mb 85f
1:30pm  -   -   -  22 29 mph 1009mb 85f
1:20pm  -   -   -  22 29 mph 1009.2mb 85f
1:10pm  -   -   -  25 29 mph 1009.3mb 85f
1:00pm  -   -   -  25 29 mph 1009.6mb 85f
12:50pm 8ft 8s 6s 25 31 mph 1009.7mb 85f
12:40pm  -   -   -  22 29 mph 1010mb 85f
12:30pm  -   -   -  25 29 mph 1010.1mb 85f
12:20pm  -   -   -  25 29 mph 1010.2mb 85f
12:10pm  -   -   -  25 29 mph 1010.3mb 85f
12:00pm  -   -   -  25 31 mph 1010.4mb 85f
11:50am 8ft 8s 6s 25 31 mph 1010.5mb 85f
11:40am 8ft  -  6s 22 27 mph 1010.5mb 85f
11:30am  -   -   -  22 27 mph 1010.7mb 85f
11:20am  -   -   -  22 29 mph 1011mb 85f
11:10am  -   -   -  22 27 mph 1011.2mb 85f
11:00am  -   -   -  22 29 mph 1011.4mb 85f
10:50am 8ft 8s 6s 22 27 mph 1011.5mb 85f
10:40am 8ft  -  6s 22 27 mph 1011.7mb 85f
10:30am  -   -   -  22 29 mph 1011.9mb 85f
10:20am  -   -   -  22 29 mph 1012mb 85f
10:10am  -   -   -  22 29 mph 1012.1mb 85f
10:00am  -   -   -  22 27 mph 1012.1mb 85f
9:50am 8.5ft 8s 6s 22 29 mph 1012.1mb 85f
9:40am 8.5ft  -  6s 25 29 mph 1012.2mb 85f
9:30am  -   -   -  25 29 mph 1012.1mb 85f
9:20am  -   -   -  25 31 mph 1012mb 85f
9:10am  -   -   -  25 29 mph 1012mb 85f
9:00am  -   -   -  22 31 mph 1012mb 85f
8:50am 8ft 8s 6s 25 29 mph 1011.8mb 85f
8:40am 8ft  -  6s 25 29 mph 1011.7mb 85f
8:30am  -   -   -  22 31 mph 1011.6mb 85f
8:20am  -   -   -  25 29 mph 1011.5mb 85f
8:10am  -   -   -  25 31 mph 1011.3mb 85f
8:00am  -   -   -  25 31 mph 1011.2mb 85f
7:50am 7.5ft 7s 6s 25 29 mph 1011mb 85f
7:40am 7.5ft  -  6s 25 29 mph 1010.9mb 85f
7:30am  -   -   -  22 29 mph 1010.9mb 85f
7:20am  -   -   -  25 29 mph 1010.8mb 85f
7:10am  -   -   -  25 31 mph 1010.8mb 85f
7:00am  -   -   -  25 31 mph 1010.8mb 85f
6:50am 9ft 8s 6s 25 29 mph 1010.7mb 85f
6:40am  -   -   -  25 31 mph 1010.7mb 85f
6:30am  -   -   -  25 29 mph 1010.7mb 85f
6:20am  -   -   -  25 29 mph 1010.6mb 85f
6:10am  -   -   -  25 29 mph 1010.4mb 85f
6:00am  -   -   -  25 29 mph 1010.4mb 85f
5:50am 7.5ft 8s 6s 22 27 mph 1010.4mb 85f
5:40am 7.5ft  -  6s 22 29 mph 1010.2mb 85f
5:30am  -   -   -  22 27 mph 1010.2mb 85f
5:20am  -   -   -  22 27 mph 1010.1mb 85f
5:10am  -   -   -  22 25 mph 1010mb 85f
5:00am  -   -   -  22 27 mph 1009.8mb 85f
4:50am 7.5ft 8s 6s 25 29 mph 1009.8mb 85f
4:40am 7.5ft  -  6s 25 29 mph 1009.8mb 85f
4:30am  -   -   -  22 29 mph 1009.8mb 85f
4:20am  -   -   -  22 29 mph 1009.6mb 85f
4:10am  -   -   -  22 29 mph 1009.5mb 85f
4:00am  -   -   -  25 29 mph 1009.3mb 85f
3:50am 7ft 8s 6s 25 29 mph 1009.2mb 85f
3:40am  -   -   -  22 27 mph 1009.3mb 85f
3:30am  -   -   -  22 27 mph 1009.3mb 85f
3:20am  -   -   -  22 27 mph 1009.2mb 85f
3:10am  -   -   -  22 27 mph 1009.1mb 85f
3:00am  -   -   -  22 27 mph 1009mb 85f
2:50am 7ft 8s 5s 22 27 mph 1009.2mb 85f
2:40am 7ft  -  5s 20 27 mph 1009.2mb 85f
2:30am  -   -   -  20 27 mph 1009.3mb 85f
2:20am  -   -   -  22 27 mph 1009.5mb 85f
2:10am  -   -   -  20 25 mph 1009.7mb 85f
2:00am  -   -   -  20 25 mph 1009.8mb -
1:50am 7ft 8s 6s 22 27 mph 1009.8mb 85f
1:40am 7ft  -  6s 22 27 mph 1009.8mb 85f
1:30am  -   -   -  22 29 mph 1010.1mb 85f
1:20am  -   -   -  22 27 mph 1010.2mb 85f
1:10am  -   -   -  22 27 mph 1010.3mb 85f
1:00am  -   -   -  22 27 mph 1010.5mb 85f
12:50am 8ft 8s 6s 20 27 mph 1010.7mb 85f
12:40am 8ft  -  6s 20 27 mph 1010.7mb 85f
12:30am  -   -   -  22 27 mph 1010.8mb 85f
12:20am  -   -   -  20 25 mph 1011mb 85f
12:10am  -   -   -  20 25 mph 1011mb 85f
12:00am  -   -   -  22 27 mph 1011.2mb 85f
Wed 10/18 11:50pm 7ft 7s 5s 22 27 mph 1011.5mb 85f
11:40pm 7ft  -  5s 22 27 mph 1011.5mb 85f
11:30pm  -   -   -  22 27 mph 1011.6mb 85f
11:20pm  -   -   -  22 27 mph 1011.7mb 85f
11:10pm  -   -   -  22 29 mph 1012mb 85f
11:00pm  -   -   -  22 29 mph 1012.1mb 85f
10:50pm 6.5ft 8s 5s 22 27 mph 1012.3mb 85f
10:40pm 6.5ft  -  5s 22 29 mph 1012.2mb 85f
10:30pm  -   -   -  22 27 mph 1012mb 85f
10:20pm  -   -   -  22 27 mph 1012mb 85f
10:10pm  -   -   -  25 29 mph 1012mb 85f
10:00pm  -   -   -  25 31 mph 1012mb 85f
9:50pm 7ft 8s 5s 22 27 mph 1011.9mb 85f
9:40pm  -   -   -  22 27 mph 1011.8mb 85f
9:30pm  -   -   -  22 27 mph 1011.7mb 85f
9:20pm  -   -   -  22 29 mph 1011.7mb 85f
9:10pm  -   -   -  22 29 mph 1011.6mb 85f
9:00pm  -   -   -  22 27 mph 1011.5mb 85f
8:50pm 6.5ft 8s 5s 22 27 mph 1011.4mb 85f
8:40pm  -   -   -  22 27 mph 1011.4mb 85f
8:30pm  -   -   -  22 27 mph 1011.2mb 85f
8:20pm  -   -   -  20 27 mph 1011.2mb 85f
8:10pm  -   -   -  22 27 mph 1011mb 85f
8:00pm  -   -   -  22 27 mph 1010.9mb 85f
7:50pm 7ft 8s 6s 22 27 mph 1010.7mb 85f
7:40pm  -   -   -  22 27 mph 1010.6mb 85f
7:30pm  -   -   -  22 27 mph 1010.3mb 85f
7:20pm  -   -   -  20 25 mph 1010.1mb 85f
7:10pm  -   -   -  20 25 mph 1009.8mb 85f
7:00pm  -   -   -  20 27 mph 1009.7mb 85f
6:50pm 7ft 8s 6s 20 27 mph 1009.5mb 85f
6:40pm 7ft  -  6s 20 25 mph 1009.3mb 85f
6:30pm  -   -   -  20 25 mph 1009.2mb 85f
6:20pm  -   -   -  22 27 mph 1009.2mb 85f
6:10pm  -   -   -  22 25 mph 1009.2mb 85f
6:00pm  -   -   -  20 27 mph 1009.3mb 85f
5:50pm 7ft 8s 6s 20 25 mph 1009.3mb 85f
5:40pm  -   -   -  20 27 mph 1009.3mb 85f
5:30pm  -   -   -  20 25 mph 1009.2mb 85f
5:20pm  -   -   -  22 27 mph 1009.1mb 85f
5:10pm  -   -   -  20 25 mph 1009.2mb 85f
5:00pm  -   -   -  22 27 mph 1009.1mb 85f
4:50pm 7ft 8s 6s 20 25 mph 1009.2mb 85f